Location: Unspecified
(0.0000°N, 0.0000°E)
Time: 15:58:56
(UTC+00:00)

SR - All Passes

Search period start: 13 December 2018 00:00
Search period end: 23 December 2018 00:00
Orbit: 578 x 878 km, 66.7° (Epoch: 12 December)

Date Brightness Start Highest point End Pass type
(mag) Time Alt. Az. Time Alt. Az. Time Alt. Az.
13 Dec - 00:35:07 10° S 00:40:41 45° ESE 00:46:16 10° NE night (unlit)
13 Dec - 02:19:23 10° WSW 02:22:34 15° WNW 02:25:45 10° NW night (unlit)
13 Dec - 13:02:39 10° NNW 13:06:53 77° WSW 13:11:06 10° SSE daylight
13 Dec - 23:47:06 10° SSE 23:51:09 19° ESE 23:55:12 10° ENE night (unlit)
14 Dec - 01:27:43 10° SW 01:33:01 35° WNW 01:38:18 10° N night (unlit)
14 Dec - 12:13:36 10° N 12:17:24 32° ENE 12:21:11 10° SE daylight
15 Dec - 00:37:36 10° SSW 00:43:30 83° WNW 00:49:23 10° NNE night (unlit)
15 Dec - 11:26:50 10° NE 11:27:52 11° ENE 11:28:54 10° E daylight
15 Dec - 13:06:05 10° NW 13:09:37 26° WSW 13:13:10 10° SSW daylight
15 Dec - 23:48:28 10° S 23:53:58 42° ESE 23:59:28 10° NE night (unlit)
16 Dec - 01:32:22 10° WSW 01:35:51 16° WNW 01:39:20 10° NNW night (unlit)
16 Dec - 12:15:54 10° NNW 12:20:08 85° WSW 12:24:22 10° SSE daylight
16 Dec - 23:00:36 10° SSE 23:04:25 18° ESE 23:08:15 10° ENE night (unlit)
17 Dec - 00:40:54 10° SW 00:46:18 38° WNW 00:51:41 10° N night (unlit)
17 Dec - 11:26:57 10° N 11:30:38 29° ENE 11:34:19 10° SE daylight
17 Dec - 23:50:53 10° SSW 23:56:47 89° WNW 00:02:40 10° NNE night (unlit)
18 Dec - 12:19:13 10° NW 12:22:51 28° WSW 12:26:31 10° S daylight
18 Dec - 23:01:49 10° S 23:07:15 39° ESE 23:12:41 10° NE night (unlit)
19 Dec - 00:45:23 10° WSW 00:49:08 17° WNW 00:52:51 10° NNW night (unlit)
19 Dec - 11:29:09 10° NNW 11:33:22 87° ENE 11:37:36 10° SSE daylight
19 Dec - 22:14:07 10° SSE 22:17:42 16° ESE 22:21:17 10° ENE night (unlit)
19 Dec - 23:54:06 10° SW 23:59:36 41° WNW 00:05:03 10° N night (unlit)
20 Dec - 10:40:18 10° NNE 10:43:53 27° ENE 10:47:28 10° SE daylight
20 Dec - 12:24:51 10° W 12:25:38 10° WSW 12:26:25 10° WSW daylight
20 Dec - 23:04:10 10° SSW 23:10:04 85° ESE 23:15:57 10° NNE night (unlit)
21 Dec - 11:32:22 10° NW 11:36:06 31° WSW 11:39:53 10° S daylight
21 Dec - 22:15:12 10° S 22:20:33 36° ESE 22:25:52 10° NE night (unlit)
21 Dec - 23:58:26 10° WSW 00:02:24 19° WNW 00:06:22 10° NNW night (unlit)
22 Dec - 10:42:24 10° NNW 10:46:37 79° ENE 10:50:51 10° SSE daylight
22 Dec - 21:27:40 10° SE 21:30:59 15° ESE 21:34:16 10° ENE night (unlit)
22 Dec - 23:07:19 10° SW 23:12:52 44° WNW 23:18:24 10° N night (unlit)
